Grub im Wienerwald
Wetterdaten: aktuell Dienstag, 21.08.2018 02:30
Datum Zeit Temp. A. Feuchte A. Luftdruck Regen Wind Richtung Richtung Sonnenschein UV Solar Taupunkt Windchill Windben
21.08.2018 02:30 17,1 C 84 % 1015,5 hPa 0,0 l/m 1,0 km/h N-NW 343 0 min 0,0 UV-I 0 W/m 14,4 C 17,1 C 3,2 km/h
21.08.2018 02:27 17,1 C 84 % 1015,5 hPa 0,0 l/m 0,7 km/h N-NW 343 0 min 0,0 UV-I 0 W/m 14,4 C 17,1 C 3,2 km/h
21.08.2018 02:24 17,1 C 84 % 1015,4 hPa 0,0 l/m 0,4 km/h N-NW 343 0 min 0,0 UV-I 0 W/m 14,4 C 17,1 C 1,6 km/h
21.08.2018 02:21 17,1 C 84 % 1015,4 hPa 0,0 l/m 1,7 km/h N-NW 343 0 min 0,0 UV-I 0 W/m 14,4 C 17,1 C 3,2 km/h
21.08.2018 02:18 17,1 C 84 % 1015,4 hPa 0,0 l/m 2,1 km/h N-NW 343 0 min 0,0 UV-I 0 W/m 14,4 C 17,1 C 4,8 km/h
21.08.2018 02:15 17,0 C 84 % 1015,4 hPa 0,0 l/m 1,5 km/h N-NW 343 0 min 0,0 UV-I 0 W/m 14,3 C 17,0 C 3,2 km/h
21.08.2018 02:12 17,0 C 84 % 1015,4 hPa 0,0 l/m 3,2 km/h N-NW 343 0 min 0,0 UV-I 0 W/m 14,3 C 17,0 C 4,8 km/h
21.08.2018 02:09 17,0 C 84 % 1015,4 hPa 0,0 l/m 2,8 km/h N-NW 343 0 min 0,0 UV-I 0 W/m 14,3 C 17,0 C 4,8 km/h
21.08.2018 02:06 17,1 C 84 % 1015,3 hPa 0,0 l/m 3,7 km/h N-NW 343 0 min 0,0 UV-I 0 W/m 14,4 C 17,1 C 4,8 km/h
21.08.2018 02:03 17,1 C 84 % 1015,3 hPa 0,0 l/m 3,5 km/h N-NW 343 0 min 0,0 UV-I 0 W/m 14,4 C 17,1 C 4,8 km/h
21.08.2018 02:00 17,1 C 84 % 1015,3 hPa 0,0 l/m 4,9 km/h N-NW 343 0 min 0,0 UV-I 0 W/m 14,4 C 17,1 C 6,4 km/h
21.08.2018 01:57 17,1 C 84 % 1015,3 hPa 0,0 l/m 4,8 km/h N-NW 343 0 min 0,0 UV-I 0 W/m 14,4 C 17,1 C 6,4 km/h
21.08.2018 01:54 17,1 C 84 % 1015,3 hPa 0,0 l/m 2,5 km/h N-NW 343 0 min 0,0 UV-I 0 W/m 14,4 C 17,1 C 4,8 km/h
21.08.2018 01:51 17,1 C 84 % 1015,4 hPa 0,0 l/m 1,6 km/h N-NW 343 0 min 0,0 UV-I 0 W/m 14,4 C 17,1 C 6,4 km/h
21.08.2018 01:48 17,2 C 84 % 1015,4 hPa 0,0 l/m 2,9 km/h N-NW 343 0 min 0,0 UV-I 0 W/m 14,5 C 17,2 C 6,4 km/h
21.08.2018 01:45 17,2 C 84 % 1015,4 hPa 0,0 l/m 5,4 km/h N-NW 343 0 min 0,0 UV-I 0 W/m 14,5 C 17,2 C 9,7 km/h
21.08.2018 01:42 17,2 C 83 % 1015,4 hPa 0,0 l/m 1,8 km/h NW 322 0 min 0,0 UV-I 0 W/m 14,3 C 17,2 C 6,4 km/h
21.08.2018 01:39 17,2 C 83 % 1015,4 hPa 0,0 l/m 4,2 km/h NW 322 0 min 0,0 UV-I 0 W/m 14,3 C 17,2 C 8,0 km/h
21.08.2018 01:36 17,3 C 83 % 1015,2 hPa 0,0 l/m 0,5 km/h NW 322 0 min 0,0 UV-I 0 W/m 14,4 C 17,3 C 3,2 km/h
21.08.2018 01:33 17,3 C 83 % 1015,1 hPa 0,0 l/m 0,0 km/h NW 322 0 min 0,0 UV-I 0 W/m 14,4 C 17,3 C 0,0 km/h
21.08.2018 01:30 17,3 C 83 % 1015,0 hPa 0,0 l/m 0,0 km/h NW 322 0 min 0,0 UV-I 0 W/m 14,4 C 17,3 C 0,0 km/h
21.08.2018 01:27 17,3 C 83 % 1015,0 hPa 0,0 l/m 0,0 km/h NW 322 0 min 0,0 UV-I 0 W/m 14,4 C 17,3 C 0,0 km/h
21.08.2018 01:24 17,4 C 83 % 1014,9 hPa 0,0 l/m 0,0 km/h NW 322 0 min 0,0 UV-I 0 W/m 14,5 C 17,4 C 0,0 km/h
21.08.2018 01:21 17,4 C 83 % 1014,9 hPa 0,0 l/m 0,0 km/h NW 322 0 min 0,0 UV-I 0 W/m 14,5 C 17,4 C 0,0 km/h
21.08.2018 01:18 17,4 C 83 % 1014,9 hPa 0,0 l/m 0,0 km/h NW 322 0 min 0,0 UV-I 0 W/m 14,5 C 17,4 C 0,0 km/h
21.08.2018 01:15 17,5 C 83 % 1014,9 hPa 0,0 l/m 0,0 km/h NW 322 0 min 0,0 UV-I 0 W/m 14,6 C 17,5 C 0,0 km/h
21.08.2018 01:12 17,5 C 82 % 1014,9 hPa 0,0 l/m 0,0 km/h NW 322 0 min 0,0 UV-I 0 W/m 14,4 C 17,5 C 0,0 km/h
21.08.2018 01:09 17,6 C 82 % 1015,0 hPa 0,0 l/m 0,0 km/h NW 322 0 min 0,0 UV-I 0 W/m 14,5 C 17,6 C 0,0 km/h
21.08.2018 01:06 17,6 C 81 % 1014,9 hPa 0,0 l/m 0,0 km/h NW 322 0 min 0,0 UV-I 0 W/m 14,3 C 17,6 C 0,0 km/h
21.08.2018 01:03 17,6 C 82 % 1015,0 hPa 0,0 l/m 0,0 km/h NW 322 0 min 0,0 UV-I 0 W/m 14,5 C 17,6 C 0,0 km/h
21.08.2018 01:00 17,7 C 82 % 1015,1 hPa 0,0 l/m 0,0 km/h NW 322 0 min 0,0 UV-I 0 W/m 14,6 C 17,7 C 0,0 km/h
21.08.2018 00:57 17,7 C 82 % 1015,0 hPa 0,0 l/m 0,0 km/h NW 322 0 min 0,0 UV-I 0 W/m 14,6 C 17,7 C 0,0 km/h
21.08.2018 00:54 17,7 C 82 % 1015,0 hPa 0,0 l/m 0,0 km/h NW 322 0 min 0,0 UV-I 0 W/m 14,6 C 17,7 C 0,0 km/h
21.08.2018 00:51 17,7 C 82 % 1015,0 hPa 0,0 l/m 0,0 km/h NW 322 0 min 0,0 UV-I 0 W/m 14,6 C 17,7 C 0,0 km/h
21.08.2018 00:48 17,7 C 82 % 1015,0 hPa 0,0 l/m 0,0 km/h NW 322 0 min 0,0 UV-I 0 W/m 14,6 C 17,7 C 0,0 km/h
21.08.2018 00:45 17,8 C 82 % 1015,0 hPa 0,0 l/m 0,0 km/h NW 322 0 min 0,0 UV-I 0 W/m 14,7 C 17,8 C 0,0 km/h
21.08.2018 00:42 17,8 C 82 % 1015,1 hPa 0,0 l/m 0,0 km/h NW 322 0 min 0,0 UV-I 0 W/m 14,7 C 17,8 C 0,0 km/h
21.08.2018 00:39 17,8 C 82 % 1015,1 hPa 0,0 l/m 0,0 km/h NW 322 0 min 0,0 UV-I 0 W/m 14,7 C 17,8 C 0,0 km/h
21.08.2018 00:36 17,8 C 82 % 1015,1 hPa 0,0 l/m 0,0 km/h NW 322 0 min 0,0 UV-I 0 W/m 14,7 C 17,8 C 0,0 km/h
21.08.2018 00:33 17,8 C 82 % 1015,1 hPa 0,0 l/m 0,0 km/h NW 322 0 min 0,0 UV-I 0 W/m 14,7 C 17,8 C 0,0 km/h
21.08.2018 00:30 17,9 C 82 % 1015,1 hPa 0,0 l/m 0,0 km/h NW 322 0 min 0,0 UV-I 0 W/m 14,8 C 17,9 C 0,0 km/h
21.08.2018 00:27 17,9 C 83 % 1015,1 hPa 0,0 l/m 0,0 km/h NW 322 0 min 0,0 UV-I 0 W/m 15,0 C 17,9 C 0,0 km/h
21.08.2018 00:24 18,0 C 82 % 1015,1 hPa 0,0 l/m 0,0 km/h NW 322 0 min 0,0 UV-I 0 W/m 14,9 C 18,0 C 0,0 km/h
21.08.2018 00:21 18,0 C 82 % 1015,1 hPa 0,0 l/m 0,0 km/h NW 322 0 min 0,0 UV-I 0 W/m 14,9 C 18,0 C 0,0 km/h
21.08.2018 00:18 18,1 C 81 % 1015,1 hPa 0,0 l/m 0,0 km/h NW 322 0 min 0,0 UV-I 0 W/m 14,8 C 18,1 C 0,0 km/h
21.08.2018 00:15 18,1 C 81 % 1015,1 hPa 0,0 l/m 0,0 km/h NW 322 0 min 0,0 UV-I 0 W/m 14,8 C 18,1 C 0,0 km/h
21.08.2018 00:12 18,2 C 81 % 1015,1 hPa 0,0 l/m 0,0 km/h NW 322 0 min 0,0 UV-I 0 W/m 14,9 C 18,2 C 0,0 km/h
21.08.2018 00:09 18,2 C 81 % 1015,2 hPa 0,0 l/m 0,1 km/h NW 322 0 min 0,0 UV-I 0 W/m 14,9 C 18,2 C 1,6 km/h
21.08.2018 00:06 18,2 C 81 % 1015,2 hPa 0,0 l/m 0,8 km/h NW 322 0 min 0,0 UV-I 0 W/m 14,9 C 18,2 C 1,6 km/h
21.08.2018 00:03 18,3 C 81 % 1015,2 hPa 0,0 l/m 0,1 km/h NW 322 0 min 0,0 UV-I 0 W/m 15,0 C 18,3 C 1,6 km/h
21.08.2018 00:00 18,3 C 80 % 1015,2 hPa 0,0 l/m 0,0 km/h NW 322 0 min 0,0 UV-I 0 W/m 14,8 C 18,3 C 1,6 km/h
20.08.2018 23:57 18,3 C 80 % 1015,2 hPa 0,0 l/m 0,2 km/h NW 322 0 min 0,0 UV-I 0 W/m 14,8 C 18,3 C 1,6 km/h
20.08.2018 23:54 18,4 C 80 % 1015,2 hPa 0,0 l/m 1,1 km/h NW 322 0 min 0,0 UV-I 0 W/m 14,9 C 18,4 C 3,2 km/h
20.08.2018 23:51 18,4 C 80 % 1015,2 hPa 0,0 l/m 0,0 km/h NW 322 0 min 0,0 UV-I 0 W/m 14,9 C 18,4 C 1,6 km/h
20.08.2018 23:48 18,4 C 80 % 1015,2 hPa 0,0 l/m 0,2 km/h NW 322 0 min 0,0 UV-I 0 W/m 14,9 C 18,4 C 1,6 km/h
20.08.2018 23:45 18,5 C 80 % 1015,2 hPa 0,0 l/m 0,0 km/h NW 322 0 min 0,0 UV-I 0 W/m 15,0 C 18,5 C 0,0 km/h
20.08.2018 23:42 18,6 C 80 % 1015,2 hPa 0,0 l/m 0,0 km/h NW 322 0 min 0,0 UV-I 0 W/m 15,1 C 18,6 C 1,6 km/h
20.08.2018 23:39 18,6 C 80 % 1015,2 hPa 0,0 l/m 0,5 km/h NW 322 0 min 0,0 UV-I 0 W/m 15,1 C 18,6 C 1,6 km/h
20.08.2018 23:36 18,7 C 79 % 1015,1 hPa 0,0 l/m 0,0 km/h NW 322 0 min 0,0 UV-I 0 W/m 15,0 C 18,7 C 1,6 km/h
20.08.2018 23:33 18,7 C 80 % 1015,1 hPa 0,0 l/m 0,0 km/h NW 322 0 min 0,0 UV-I 0 W/m 15,2 C 18,7 C 1,6 km/h
20.08.2018 23:30 18,8 C 79 % 1015,1 hPa 0,0 l/m 0,0 km/h NW 322 0 min 0,0 UV-I 0 W/m 15,1 C 18,8 C 1,6 km/h
20.08.2018 23:27 18,8 C 79 % 1015,2 hPa 0,0 l/m 0,0 km/h NW 322 0 min 0,0 UV-I 0 W/m 15,1 C 18,8 C 0,0 km/h
20.08.2018 23:24 18,8 C 78 % 1015,1 hPa 0,0 l/m 0,1 km/h NW 322 0 min 0,0 UV-I 0 W/m 14,9 C 18,8 C 1,6 km/h
20.08.2018 23:21 18,8 C 78 % 1015,2 hPa 0,0 l/m 0,0 km/h NW 322 0 min 0,0 UV-I 0 W/m 14,9 C 18,8 C 1,6 km/h
20.08.2018 23:18 18,9 C 78 % 1015,2 hPa 0,0 l/m 0,0 km/h NW 322 0 min 0,0 UV-I 0 W/m 15,0 C 18,9 C 0,0 km/h
20.08.2018 23:15 18,9 C 77 % 1015,1 hPa 0,0 l/m 0,0 km/h NW 322 0 min 0,0 UV-I 0 W/m 14,8 C 18,9 C 0,0 km/h
20.08.2018 23:12 18,9 C 77 % 1015,1 hPa 0,0 l/m 0,0 km/h NW 322 0 min 0,0 UV-I 0 W/m 14,8 C 18,9 C 0,0 km/h
20.08.2018 23:09 19,0 C 77 % 1015,1 hPa 0,0 l/m 0,0 km/h NW 322 0 min 0,0 UV-I 0 W/m 14,9 C 19,0 C 0,0 km/h
20.08.2018 23:06 19,0 C 77 % 1015,0 hPa 0,0 l/m 0,0 km/h NW 322 0 min 0,0 UV-I 0 W/m 14,9 C 19,0 C 0,0 km/h
20.08.2018 23:03 19,1 C 77 % 1015,0 hPa 0,0 l/m 0,0 km/h NW 322 0 min 0,0 UV-I 0 W/m 15,0 C 19,1 C 0,0 km/h
20.08.2018 23:00 19,1 C 77 % 1014,9 hPa 0,0 l/m 0,0 km/h NW 322 0 min 0,0 UV-I 0 W/m 15,0 C 19,1 C 0,0 km/h
20.08.2018 22:57 19,1 C 77 % 1014,9 hPa 0,0 l/m 0,0 km/h NW 322 0 min 0,0 UV-I 0 W/m 15,0 C 19,1 C 0,0 km/h
20.08.2018 22:54 19,1 C 78 % 1014,9 hPa 0,0 l/m 0,0 km/h NW 322 0 min 0,0 UV-I 0 W/m 15,2 C 19,1 C 0,0 km/h
20.08.2018 22:51 19,2 C 77 % 1014,9 hPa 0,0 l/m 0,0 km/h NW 322 0 min 0,0 UV-I 0 W/m 15,1 C 19,2 C 0,0 km/h
20.08.2018 22:48 19,2 C 77 % 1014,9 hPa 0,0 l/m 0,0 km/h NW 322 0 min 0,0 UV-I 0 W/m 15,1 C 19,2 C 0,0 km/h
20.08.2018 22:45 19,2 C 76 % 1014,9 hPa 0,0 l/m 0,0 km/h NW 322 0 min 0,0 UV-I 0 W/m 14,9 C 19,2 C 0,0 km/h
20.08.2018 22:42 19,2 C 76 % 1014,8 hPa 0,0 l/m 0,0 km/h NW 322 0 min 0,0 UV-I 0 W/m 14,9 C 19,2 C 0,0 km/h
20.08.2018 22:39 19,3 C 76 % 1014,8 hPa 0,0 l/m 0,0 km/h NW 322 0 min 0,0 UV-I 0 W/m 15,0 C 19,3 C 0,0 km/h
20.08.2018 22:36 19,3 C 76 % 1014,8 hPa 0,0 l/m 0,0 km/h NW 322 0 min 0,0 UV-I 0 W/m 15,0 C 19,3 C 0,0 km/h
20.08.2018 22:33 19,3 C 76 % 1014,8 hPa 0,0 l/m 0,0 km/h NW 322 0 min 0,0 UV-I 0 W/m 15,0 C 19,3 C 0,0 km/h
20.08.2018 22:30 19,4 C 76 % 1014,8 hPa 0,0 l/m 0,0 km/h NW 322 0 min 0,0 UV-I 0 W/m 15,1 C 19,4 C 0,0 km/h
20.08.2018 22:27 19,4 C 76 % 1014,8 hPa 0,0 l/m 0,0 km/h NW 322 0 min 0,0 UV-I 0 W/m 15,1 C 19,4 C 0,0 km/h
20.08.2018 22:24 19,5 C 76 % 1014,8 hPa 0,0 l/m 0,0 km/h NW 322 0 min 0,0 UV-I 0 W/m 15,2 C 19,5 C 0,0 km/h
20.08.2018 22:21 19,6 C 75 % 1014,8 hPa 0,0 l/m 0,0 km/h NW 322 0 min 0,0 UV-I 0 W/m 15,0 C 19,6 C 0,0 km/h
20.08.2018 22:18 19,6 C 74 % 1014,8 hPa 0,0 l/m 0,0 km/h NW 322 0 min 0,0 UV-I 0 W/m 14,8 C 19,6 C 0,0 km/h
20.08.2018 22:15 19,7 C 74 % 1014,8 hPa 0,0 l/m 0,0 km/h NW 322 0 min 0,0 UV-I 0 W/m 14,9 C 19,7 C 0,0 km/h
20.08.2018 22:12 19,7 C 74 % 1014,9 hPa 0,0 l/m 0,1 km/h NW 322 0 min 0,0 UV-I 0 W/m 14,9 C 19,7 C 1,6 km/h
20.08.2018 22:09 19,8 C 74 % 1014,8 hPa 0,0 l/m 0,2 km/h NW 322 0 min 0,0 UV-I 0 W/m 15,0 C 19,8 C 1,6 km/h
20.08.2018 22:06 19,8 C 74 % 1014,8 hPa 0,0 l/m 0,0 km/h NW 322 0 min 0,0 UV-I 0 W/m 15,0 C 19,8 C 1,6 km/h
20.08.2018 22:03 19,8 C 74 % 1014,8 hPa 0,0 l/m 0,0 km/h NW 322 0 min 0,0 UV-I 0 W/m 15,0 C 19,8 C 1,6 km/h
20.08.2018 22:00 19,9 C 74 % 1014,8 hPa 0,0 l/m 0,1 km/h NW 322 0 min 0,0 UV-I 0 W/m 15,1 C 19,9 C 1,6 km/h
_ Min-Zeit 06:12 14:09 18:06 - 03:00 - - - - - 06:12 06:12 03:00
Minimum _ 12,2 C 31 % 1013,3 hPa - 0,0 km/h - - - - - 10,9 C 12,2 C 0,0 km/h
_ Max-Zeit 15:30 08:15 09:57 03:00 15:57 - - 06:09 12:24 13:33 09:33 15:30 15:57
Maximum _ 33,2 C 97 % 1016,4 hPa 0,0 l/m 14,6 km/h
N
- - 3 min 6,9 UV-I 830 W/m 18,1 C 33,2 C 24,1 km/h
N
Durchschnitt _ 22,0 C 67 % 1015,1 hPa #0,0 l/m 2,5 km/h N-NW - #0 min. 0,0 UV-I 0 W/m 14,2 C 22,0 C 5,1 km/h
Schulla EDV